Wind_Speed
31 32 33 34 33 33 34 35 36 37 37 37 37 36 35 35 36 36 36 37 37 38 38 39 41 42 43 44 44 44 45 45 46 46 47 48 49 49 49 49 49 49 49
30 32 32 31 31 32 33 35 36 37 38 38 37 36 36 36 36 36 37 38 39 40 41 42 43 45 46 47 48 49 50 50 51 52 52 53 54 54 54 55 55 54 54
29 29 28 28 29 30 32 35 37 38 38 37 36 36 37 37 38 39 40 40 41 43 44 45 46 48 49 50 52 53 54 55 56 57 58 59 59 60 60 59 59 59 59
29 27 27 28 30 32 34 36 37 38 37 37 37 37 38 38 39 41 42 43 45 46 48 49 51 53 54 56 57 59 60 62 63 64 65 66 66 66 66 66 65 65 65
28 27 28 30 33 35 37 39 39 39 38 37 37 38 39 40 41 43 45 47 49 51 53 55 57 59 61 63 64 66 67 68 69 70 71 72 72 73 73 73 72 72 71
28 30 32 34 36 38 40 41 41 41 39 38 38 39 41 42 44 46 49 51 54 56 59 61 63 65 66 68 69 70 71 72 73 74 75 76 77 78 78 79 79 78 78
31 33 36 38 40 40 41 42 42 41 40 40 40 42 44 46 48 51 54 56 59 61 63 65 67 68 70 71 72 74 75 76 77 78 79 80 81 82 83 83 84 84 84
34 36 39 41 41 42 42 41 40 40 41 42 44 46 47 49 52 55 58 60 63 65 66 68 70 71 72 74 75 76 77 78 80 81 83 84 85 87 88 89 89 90 90
37 39 41 42 42 42 42 41 41 42 44 47 50 52 54 55 55 57 59 62 65 67 68 70 71 73 74 76 77 78 80 81 83 85 87 88 90 91 93 94 95 96 96
38 40 41 42 41 41 41 42 44 46 48 51 55 59 62 65 67 66 64 64 65 67 69 70 72 74 76 78 80 82 84 87 89 91 93 95 96 98 99 100 101 102 102
40 41 41 41 41 42 43 46 48 50 53 56 60 62 65 68 72 74 73 71 69 68 69 71 74 78 81 84 87 90 93 96 98 100 102 103 105 106 106 107 108 108 109
40 40 40 41 42 44 47 49 51 54 58 61 64 66 69 70 71 73 75 75 75 74 74 76 81 86 90 94 97 101 103 106 108 109 110 111 111 112 112 112 111 111 111
40 40 40 42 44 47 49 52 55 58 62 64 67 69 70 71 72 74 76 77 78 79 81 85 90 95 100 104 107 110 112 113 114 114 113 112 110 109 107 106 105 105 105
39 41 42 44 47 50 52 55 59 62 65 67 69 70 70 71 73 76 80 84 85 85 87 91 97 103 108 112 115 116 116 114 113 110 107 104 101 98 96 94 93 92 93
41 43 45 47 50 53 55 59 63 65 68 69 69 69 70 73 77 81 87 92 96 97 96 98 104 109 114 117 116 114 110 105 101 97 93 90 88 87 85 84 83 83 83
43 45 47 50 53 56 59 63 66 68 70 69 69 70 74 78 83 88 94 99 104 109 109 108 111 114 114 112 107 102 97 92 87 85 83 82 81 80 80 79 78 78 77
45 47 50 53 56 59 63 66 69 70 69 69 71 74 79 84 90 95 100 104 110 115 119 116 113 109 103 96 90 87 85 83 82 81 80 79 77 76 75 74 73 72 71
47 49 52 55 59 63 67 69 69 68 68 70 75 80 85 91 95 101 106 111 115 118 119 116 106 96 87 81 78 76 77 78 78 76 75 73 71 70 68 67 66 66 66
49 52 55 58 63 66 69 69 68 68 71 75 81 87 92 96 101 107 112 115 116 114 109 104 95 87 80 76 74 72 71 70 68 67 65 63 62 61 60 58 57 56 56
51 54 58 62 66 68 68 67 67 70 75 81 87 92 97 103 109 113 116 115 111 105 97 91 86 81 76 72 69 66 61 58 56 54 54 54 52 51 50 50 47 45 45
53 58 62 65 67 66 65 66 70 75 81 86 92 97 104 110 114 115 113 107 101 94 88 83 79 73 67 63 60 55 50 44 40 43 45 44 45 44 43 42 39 36 35
57 62 64 65 64 64 66 70 75 80 86 92 98 104 109 113 112 107 101 95 90 85 80 73 66 61 56 52 48 43 38 34 30 35 40 38 41 40 39 36 33 30 29
61 63 63 62 62 65 69 74 80 85 92 98 104 109 111 109 103 96 89 83 77 71 65 59 53 48 45 41 38 34 31 30 29 33 35 33 35 36 34 30 27 25 26
61 61 60 61 64 69 74 79 85 91 97 103 108 110 107 99 91 86 80 73 65 57 50 45 42 40 39 37 35 31 29 27 27 33 35 31 29 29 26 24 23 23 25
59 58 60 64 68 73 79 86 92 97 102 106 107 103 96 89 82 76 69 61 52 43 39 37 37 37 36 35 34 31 28 26 23 27 31 28 25 22 21 20 20 22 24
56 59 63 68 73 80 86 92 98 102 105 105 100 91 84 78 71 64 57 49 41 35 32 30 31 32 32 32 31 30 29 27 25 25 27 26 23 18 15 17 17 17 18
Wind_Direction
292 291 291 291 291 291 292 294 295 297 297 296 294 291 288 286 284 283 282 280 278 277 277 276 277 277 278 277 276 275 273 271 270 270 269 268 268 267 266 265 265 264 264
293 292 292 292 292 292 293 295 296 297 296 295 292 290 288 286 285 284 283 281 280 279 278 276 275 275 276 276 276 276 276 275 273 272 271 271 270 270 269 269 268 267 266
295 295 294 294 295 295 296 298 298 297 295 293 290 288 286 286 285 285 284 284 283 282 281 280 279 278 278 278 278 277 277 276 275 274 273 272 272 271 271 270 270 269 268
295 295 296 297 298 299 300 300 300 298 295 292 290 287 286 285 285 284 284 284 284 284 284 283 283 283 282 281 280 280 278 277 276 275 275 274 273 272 271 270 269 269 268
293 294 296 298 299 301 301 300 299 297 294 291 288 287 286 285 286 285 286 285 285 285 285 285 284 284 283 282 281 280 279 278 277 276 275 274 273 272 272 271 270 269 268
291 292 294 295 297 298 299 298 297 294 292 289 288 288 287 287 288 288 288 288 288 288 287 287 287 286 286 285 284 283 281 280 278 277 276 275 274 273 272 272 271 270 268
289 291 293 295 296 297 297 297 295 294 292 290 290 291 292 292 292 292 292 292 292 292 292 291 291 290 289 288 287 286 285 283 282 280 279 278 276 275 273 272 271 270 269
290 292 293 295 297 297 297 296 295 294 293 292 292 292 292 293 295 295 296 295 294 294 293 292 291 290 289 288 286 285 284 283 282 280 279 278 277 275 274 272 271 269 268
291 292 294 296 297 298 298 297 296 296 296 297 296 296 295 293 292 293 293 294 293 293 292 292 291 290 289 288 287 286 285 284 283 281 280 278 277 275 273 272 270 269 267
292 293 295 297 298 298 298 298 298 299 299 299 299 299 299 299 297 296 294 294 294 294 293 293 293 292 292 291 290 289 288 287 286 284 282 280 278 276 274 272 270 269 267
293 295 296 297 298 299 299 300 300 300 300 300 300 300 300 300 300 299 299 298 297 297 297 297 297 297 296 295 294 293 292 291 289 287 285 283 280 278 275 273 271 269 267
294 296 296 296 298 299 299 299 299 299 300 301 301 301 301 300 300 300 300 299 299 299 299 300 300 300 299 298 298 296 295 293 291 289 287 284 282 279 277 275 273 271 268
294 294 294 296 297 298 298 298 299 300 301 301 302 302 303 303 302 302 301 301 300 300 301 302 302 302 301 300 299 297 295 293 291 289 286 284 282 280 278 277 274 272 270
293 293 294 295 296 297 297 298 300 301 302 303 304 304 304 304 304 304 304 303 302 302 302 303 303 302 301 300 298 297 294 292 289 287 285 284 282 280 279 277 274 272 270
292 292 293 294 296 297 298 300 302 303 305 305 305 305 304 304 305 305 306 306 305 305 304 304 302 301 300 299 297 295 293 290 289 287 286 284 283 281 280 278 275 273 270
293 293 294 296 297 299 300 302 304 305 306 306 305 305 305 306 306 307 307 307 306 305 305 304 303 301 300 298 296 294 292 291 290 289 288 286 285 283 282 279 277 274 271
294 295 296 297 299 301 303 304 306 307 306 306 306 306 306 307 307 308 307 307 306 306 305 304 303 301 299 297 294 293 292 291 291 290 289 288 286 284 282 279 277 275 272
295 296 297 299 301 303 305 306 307 307 307 307 307 307 308 308 309 308 308 307 307 306 306 305 304 301 299 296 294 292 291 291 291 290 289 288 286 284 282 279 277 274 272
296 297 299 301 304 306 307 308 308 308 308 308 309 310 310 310 310 310 309 309 308 307 305 304 303 302 300 297 295 293 292 292 291 291 289 287 286 285 284 281 279 276 273
297 299 302 304 306 307 308 309 308 309 310 311 312 312 312 312 312 311 311 310 308 307 305 304 303 302 301 299 297 296 296 294 293 290 289 288 288 288 286 285 283 280 277
300 302 304 305 307 308 309 309 310 311 312 313 314 314 314 314 314 313 312 311 309 308 306 305 303 303 302 300 300 300 299 297 295 291 290 291 291 292 292 292 289 285 281
302 303 305 307 308 309 310 311 312 314 314 315 316 316 316 315 314 313 312 311 311 310 308 306 305 304 304 304 304 305 305 302 296 291 292 293 294 296 296 296 294 292 291
303 305 307 308 309 310 311 313 314 316 316 317 317 317 317 316 314 313 312 312 312 311 309 308 308 308 308 309 310 311 309 307 303 296 295 297 295 296 296 295 295 297 301
305 307 308 309 310 311 313 315 316 317 318 318 318 318 317 316 314 314 314 314 314 314 312 311 311 312 314 316 317 318 317 313 308 301 303 306 301 299 295 294 299 305 309
306 308 309 310 311 314 315 317 317 318 318 319 319 318 317 316 316 315 316 317 318 317 316 314 315 317 320 322 323 325 325 324 318 309 309 313 310 305 299 300 307 313 314
308 309 310 312 314 316 317 318 318 319 319 320 320 319 317 317 317 317 318 320 321 321 319 318 318 320 323 326 327 329 332 333 329 322 316 316 315 312 305 311 318 324 331
Height
5804 5802 5800 5798 5796 5794 5791 5789 5786 5783 5779 5776 5773 5770 5766 5763 5761 5758 5756 5753 5751 5749 5747 5745 5743 5740 5738 5736 5734 5733 5731 5730 5728 5727 5726 5725 5725 5724 5723 5723 5723 5722 5722
5798 5796 5794 5792 5789 5787 5785 5782 5779 5776 5772 5769 5766 5762 5759 5756 5753 5750 5748 5745 5742 5740 5738 5736 5734 5731 5729 5727 5724 5722 5720 5719 5717 5716 5715 5714 5712 5711 5711 5710 5710 5710 5710
5792 5790 5788 5785 5783 5781 5778 5775 5772 5768 5765 5761 5758 5755 5752 5749 5746 5743 5739 5737 5734 5731 5728 5726 5723 5721 5718 5715 5713 5711 5708 5706 5704 5703 5701 5700 5699 5698 5697 5696 5695 5695 5695
5785 5783 5781 5779 5777 5774 5771 5768 5764 5760 5757 5753 5750 5747 5743 5741 5737 5734 5731 5727 5724 5721 5718 5715 5711 5708 5705 5702 5700 5697 5694 5692 5689 5687 5685 5684 5683 5682 5681 5680 5679 5679 5679
5779 5777 5775 5773 5770 5767 5764 5760 5756 5752 5749 5745 5742 5738 5735 5732 5728 5724 5721 5717 5713 5710 5707 5703 5699 5695 5692 5688 5685 5681 5678 5675 5673 5670 5668 5666 5664 5663 5662 5661 5661 5661 5661
5772 5770 5768 5766 5763 5759 5756 5751 5747 5744 5740 5737 5734 5730 5726 5722 5719 5714 5710 5706 5702 5697 5693 5689 5684 5680 5675 5671 5667 5663 5659 5656 5653 5651 5648 5646 5644 5642 5641 5640 5639 5639 5639
5765 5763 5760 5757 5754 5750 5746 5742 5738 5733 5730 5727 5724 5721 5717 5712 5708 5703 5698 5693 5688 5683 5678 5672 5667 5662 5657 5652 5647 5643 5639 5635 5632 5629 5626 5623 5621 5619 5618 5617 5616 5615 5616
5758 5755 5752 5748 5745 5741 5737 5732 5728 5724 5720 5717 5714 5711 5709 5705 5698 5692 5686 5680 5674 5669 5663 5657 5651 5645 5640 5635 5629 5624 5620 5615 5611 5606 5603 5599 5596 5594 5592 5591 5590 5590 5590
5750 5747 5743 5739 5735 5731 5727 5723 5719 5715 5711 5706 5701 5697 5693 5691 5689 5686 5678 5670 5662 5655 5648 5641 5634 5627 5620 5615 5609 5603 5598 5593 5587 5582 5577 5573 5570 5567 5564 5562 5561 5560 5560
5742 5738 5734 5730 5725 5721 5717 5713 5709 5705 5700 5695 5689 5683 5676 5670 5666 5665 5665 5657 5648 5640 5632 5624 5615 5607 5599 5592 5586 5579 5573 5567 5560 5554 5548 5544 5539 5535 5532 5530 5528 5527 5527
5732 5728 5724 5720 5716 5712 5707 5703 5698 5693 5688 5683 5677 5671 5664 5655 5646 5639 5637 5634 5629 5621 5613 5604 5594 5584 5575 5566 5559 5551 5543 5536 5528 5521 5514 5508 5503 5498 5495 5493 5491 5490 5490
5723 5719 5715 5711 5707 5703 5698 5693 5688 5682 5676 5669 5662 5655 5648 5640 5632 5623 5617 5611 5605 5599 5591 5582 5571 5560 5548 5538 5528 5518 5510 5500 5492 5484 5476 5468 5461 5456 5453 5450 5449 5448 5448
5714 5710 5706 5702 5698 5693 5688 5683 5677 5671 5664 5656 5648 5639 5630 5621 5612 5603 5596 5590 5585 5580 5570 5560 5546 5532 5519 5507 5496 5484 5473 5463 5453 5444 5435 5427 5420 5414 5410 5408 5406 5405 5405
5706 5701 5697 5693 5689 5684 5678 5672 5665 5658 5650 5641 5632 5624 5615 5605 5595 5585 5575 5566 5561 5559 5552 5540 5524 5507 5490 5475 5462 5448 5435 5424 5414 5405 5397 5389 5383 5378 5374 5371 5368 5367 5367
5696 5692 5688 5684 5679 5673 5667 5660 5652 5644 5635 5626 5616 5607 5598 5588 5578 5567 5555 5541 5530 5525 5526 5518 5499 5481 5461 5443 5427 5411 5397 5386 5377 5369 5362 5356 5350 5345 5341 5338 5336 5335 5334
5687 5683 5678 5673 5667 5661 5654 5647 5638 5629 5620 5610 5600 5591 5581 5571 5560 5547 5534 5519 5502 5488 5486 5486 5470 5452 5432 5411 5393 5377 5364 5354 5346 5339 5333 5327 5322 5317 5312 5309 5306 5305 5304
5677 5673 5668 5662 5656 5648 5641 5632 5623 5614 5604 5594 5584 5574 5563 5552 5539 5525 5510 5495 5478 5457 5443 5443 5432 5416 5399 5383 5368 5353 5339 5328 5320 5314 5307 5300 5295 5290 5286 5282 5279 5277 5276
5667 5662 5656 5650 5643 5635 5626 5617 5608 5598 5588 5578 5567 5556 5544 5531 5517 5501 5485 5468 5450 5429 5407 5395 5391 5379 5368 5355 5344 5333 5321 5309 5299 5291 5283 5276 5270 5265 5261 5258 5255 5253 5252
5656 5651 5644 5637 5630 5621 5612 5602 5592 5582 5572 5561 5548 5536 5522 5508 5493 5476 5458 5439 5419 5400 5378 5359 5352 5345 5337 5328 5318 5310 5300 5290 5279 5269 5262 5255 5249 5244 5240 5236 5234 5232 5231
5645 5639 5632 5624 5616 5606 5596 5586 5577 5567 5555 5542 5529 5514 5499 5482 5465 5447 5428 5408 5387 5369 5353 5337 5325 5318 5310 5302 5292 5285 5280 5272 5261 5251 5244 5237 5233 5228 5223 5219 5216 5215 5213
5633 5626 5619 5610 5601 5591 5581 5571 5562 5551 5538 5524 5509 5492 5474 5455 5435 5414 5392 5374 5356 5340 5327 5314 5304 5295 5288 5280 5272 5266 5260 5255 5248 5237 5231 5225 5219 5214 5209 5205 5202 5200 5198
5621 5613 5605 5595 5586 5576 5566 5555 5544 5533 5518 5503 5487 5470 5450 5429 5408 5388 5367 5349 5332 5316 5303 5292 5283 5276 5270 5263 5257 5251 5245 5241 5237 5229 5219 5216 5208 5204 5199 5195 5192 5189 5187
5608 5599 5590 5581 5571 5561 5551 5540 5527 5514 5498 5481 5462 5444 5424 5403 5381 5363 5348 5333 5318 5302 5287 5276 5269 5262 5256 5251 5246 5242 5236 5230 5225 5218 5210 5208 5201 5195 5191 5187 5184 5181 5178
5594 5585 5576 5567 5557 5546 5535 5522 5509 5495 5478 5458 5438 5416 5396 5378 5359 5342 5328 5316 5303 5290 5278 5269 5260 5254 5248 5242 5237 5232 5227 5223 5217 5208 5201 5198 5194 5188 5183 5179 5177 5174 5171
5581 5571 5562 5552 5542 5530 5518 5504 5489 5475 5457 5438 5416 5393 5371 5355 5340 5325 5311 5301 5291 5281 5272 5262 5254 5247 5242 5236 5230 5225 5221 5216 5211 5203 5195 5191 5186 5182 5178 5175 5172 5169 5165
5568 5559 5549 5537 5526 5513 5499 5484 5467 5452 5436 5419 5399 5376 5355 5338 5324 5310 5300 5291 5283 5275 5267 5260 5253 5245 5239 5232 5226 5220 5214 5210 5204 5198 5191 5185 5180 5177 5174 5171 5169 5166 5161